Laramie, WY

4:03 PM MDT on May 26, 2017 (GMT -0600)
Laramie Regional

Weather History for KLAR - October, 2012

Change the Weather History Date:

Saturday, October 20, 2012

  Actual Average Record
Temperature  
Mean Temperature 54 °F 41 °F  
Max Temperature 69 °F 54 °F 72 °F (1950)
Min Temperature 38 °F 27 °F 7 °F (1976)
Degree Days  
Heating Degree Days 11 24  
Month to date heating degree days 429 423  
Since 1 July heating degree days 764 948  
Cooling Degree Days 0 0  
Month to date cooling degree days 0 0  
Year to date cooling degree days 211 67  
Growing Degree Days 6 (Base 50)    
Moisture  
Dew Point 19 °F    
Average Humidity 30    
Maximum Humidity 44    
Minimum Humidity 15    
Precipitation  
Precipitation 0.00 in 0.02 in 0.68 in (1972)
Month to date precipitation 0.52 0.55  
Year to date precipitation 5.41 9.81  
Sea Level Pressure  
Sea Level Pressure 29.64 in    
Wind  
Wind Speed 15 mph (SW)    
Max Wind Speed 28 mph    
Max Gust Speed 32 mph    
Visibility 10 miles    
Events      
T = Trace of Precipitation, MM = Missing Value Source: NWS Daily Summary

Daily Weather History Graph

Daily Weather History Graph

Search for Another Location

Airport or City:

Trip Planner

Search our weather history database for the weather conditions in past years. The results will help you decide how hot, cold, wet, or windy it might be!

Date:

Astronomy

Oct. 20, 2012 Rise Set
Actual Time 7:20 AM MDT 6:13 PM MDT
Civil Twilight 6:52 AM MDT 6:41 PM MDT
Nautical Twilight 6:20 AM MDT 7:13 PM MDT
Astronomical Twilight 5:48 AM MDT 7:45 PM MDT
Moon 1:00 PM MDT (10/20) 11:00 PM MDT (10/20)
Length of Visible Light 11h 48m
Length of Day
10h 52m
Waxing Crescent, 35% of the Moon is Illuminated
Oct 20
Waxing Crescent
Oct 21
First Quarter
Oct 29
Full
Nov 6
Last Quarter
Nov 13
New

Hourly Weather History & Observations

Time (MDT) Temp. Windchill Dew Point Humidity Pressure Visibility Wind Dir Wind Speed Gust Speed Precip Events Conditions
12:53 AM 48.0 °F - 19.0 °F 32% 29.72 in 10.0 mi SW 19.6 mph - N/A   Mostly Cloudy
1:53 AM 48.9 °F - 19.0 °F 31% 29.70 in 10.0 mi WSW 17.3 mph 24.2 mph N/A   Mostly Cloudy
2:53 AM 48.0 °F - 19.0 °F 32% 29.70 in 10.0 mi South 8.1 mph - N/A   Overcast
3:53 AM 46.9 °F - 18.0 °F 32% 29.70 in 10.0 mi SSW 8.1 mph - N/A   Overcast
4:53 AM 46.0 °F 39.0 °F 19.0 °F 34% 29.69 in 10.0 mi SW 17.3 mph - N/A   Clear
5:53 AM 46.9 °F - 19.0 °F 33% 29.70 in 10.0 mi SW 21.9 mph - N/A   Clear
6:53 AM 44.1 °F 36.5 °F 19.0 °F 37% 29.73 in 10.0 mi SW 17.3 mph - N/A   Clear
7:53 AM 46.9 °F - 19.9 °F 34% 29.75 in - SW 17.3 mph 21.9 mph N/A   Scattered Clouds
8:53 AM 50.0 °F - 19.9 °F 31% 29.73 in 10.0 mi SW 21.9 mph - N/A   Mostly Cloudy
9:53 AM 54.0 °F - 19.0 °F 25% 29.71 in 10.0 mi SW 25.3 mph - N/A   Clear
10:53 AM 57.0 °F - 19.9 °F 24% 29.66 in 10.0 mi SSW 15.0 mph 20.7 mph N/A   Clear
11:53 AM 64.0 °F - 17.1 °F 16% 29.59 in 10.0 mi West 20.7 mph 32.2 mph N/A   Clear
12:53 PM 64.9 °F - 17.1 °F 16% 29.57 in 10.0 mi WSW 15.0 mph 23.0 mph N/A   Partly Cloudy
1:53 PM 68.0 °F - 19.9 °F 16% 29.53 in 10.0 mi WSW 18.4 mph 25.3 mph N/A   Mostly Cloudy
2:53 PM 66.9 °F - 18.0 °F 15% 29.52 in 10.0 mi WSW 18.4 mph 29.9 mph N/A   Overcast
3:53 PM 66.0 °F - 19.9 °F 17% 29.52 in 10.0 mi WSW 16.1 mph - N/A   Overcast
4:53 PM 64.9 °F - 19.0 °F 17% 29.52 in 10.0 mi WSW 16.1 mph 20.7 mph N/A   Mostly Cloudy
5:53 PM 62.1 °F - 18.0 °F 18% 29.54 in 10.0 mi WSW 11.5 mph - N/A   Mostly Cloudy
6:53 PM 55.0 °F - 18.0 °F 23% 29.59 in 10.0 mi SW 8.1 mph - N/A   Scattered Clouds
7:53 PM 51.1 °F - 19.0 °F 28% 29.61 in 10.0 mi SSW 11.5 mph - N/A   Partly Cloudy
8:53 PM 51.1 °F - 18.0 °F 27% 29.61 in 10.0 mi WSW 11.5 mph - N/A   Clear
9:53 PM 48.9 °F - 17.1 °F 28% 29.61 in 10.0 mi WSW 9.2 mph - N/A   Clear
10:53 PM 43.0 °F 37.7 °F 18.0 °F 37% 29.63 in 10.0 mi WSW 9.2 mph - N/A   Clear
11:53 PM 37.9 °F 32.1 °F 18.0 °F 45% 29.62 in 10.0 mi WSW 8.1 mph - N/A   Clear